TimeEST,TemperatureF,Dew PointF,Humidity,Sea Level PressureIn,VisibilityMPH,Wind Direction,Wind SpeedMPH,Gust SpeedMPH,PrecipitationIn,Events,Conditions,WindDirDegrees,DateUTC
12:53 AM,50.0,46.9,89,29.82,6.0,WNW,5.8,-,N/A,,Overcast,290,2013-11-23 05:53:00
1:53 AM,50.0,46.9,89,29.83,7.0,Variable,6.9,-,N/A,,Overcast,0,2013-11-23 06:53:00
2:02 AM,50.0,46.9,89,29.83,7.0,WNW,5.8,-,N/A,,Overcast,290,2013-11-23 07:02:00
2:36 AM,48.9,46.0,90,29.82,9.0,WNW,5.8,-,N/A,,Overcast,290,2013-11-23 07:36:00
2:53 AM,50.0,44.1,80,29.81,10.0,WNW,12.7,17.3,N/A,,Overcast,290,2013-11-23 07:53:00
3:53 AM,46.9,37.0,68,29.82,10.0,WNW,9.2,24.2,N/A,,Mostly Cloudy,290,2013-11-23 08:53:00
4:53 AM,45.0,30.9,58,29.83,10.0,WNW,11.5,21.9,N/A,,Clear,300,2013-11-23 09:53:00
5:53 AM,43.0,30.9,62,29.85,10.0,NW,15.0,23.0,N/A,,Clear,310,2013-11-23 10:53:00
6:53 AM,41.0,28.9,62,29.88,10.0,NW,18.4,25.3,N/A,,Clear,310,2013-11-23 11:53:00
7:53 AM,41.0,28.0,60,29.89,10.0,NW,17.3,26.5,N/A,,Clear,320,2013-11-23 12:53:00
8:53 AM,41.0,27.0,57,29.89,10.0,NW,20.7,28.8,N/A,,Clear,320,2013-11-23 13:53:00
9:53 AM,43.0,26.1,51,29.89,10.0,NW,17.3,27.6,N/A,,Clear,310,2013-11-23 14:53:00
10:53 AM,45.0,24.1,44,29.88,10.0,NW,19.6,25.3,N/A,,Clear,320,2013-11-23 15:53:00
11:53 AM,46.0,21.9,39,29.86,10.0,NW,16.1,27.6,N/A,,Clear,320,2013-11-23 16:53:00
12:53 PM,46.0,18.0,33,29.85,10.0,NW,12.7,23.0,N/A,,Clear,310,2013-11-23 17:53:00
1:53 PM,46.0,19.0,34,29.83,10.0,NW,9.2,-,N/A,,Clear,320,2013-11-23 18:53:00
2:53 PM,44.1,14.0,30,29.83,10.0,NW,11.5,19.6,N/A,,Clear,310,2013-11-23 19:53:00
3:53 PM,42.1,17.1,37,29.83,10.0,NW,12.7,-,N/A,,Clear,310,2013-11-23 20:53:00
4:53 PM,41.0,18.0,40,29.83,10.0,WNW,10.4,-,N/A,,Clear,300,2013-11-23 21:53:00
5:53 PM,39.9,18.0,41,29.83,10.0,NW,8.1,-,N/A,,Clear,310,2013-11-23 22:53:00
6:53 PM,39.0,19.9,46,29.82,10.0,NW,11.5,-,N/A,,Clear,310,2013-11-23 23:53:00
7:53 PM,39.0,21.0,49,29.83,10.0,West,6.9,-,N/A,,Clear,280,2013-11-24 00:53:00
8:53 PM,35.1,23.0,61,29.82,10.0,NW,23.0,31.1,N/A,,Clear,310,2013-11-24 01:53:00
9:53 PM,34.0,21.9,61,29.82,10.0,WNW,13.8,26.5,N/A,,Clear,290,2013-11-24 02:53:00
10:53 PM,33.1,16.0,50,29.83,10.0,WNW,19.6,31.1,N/A,,Partly Cloudy,300,2013-11-24 03:53:00
11:53 PM,30.9,14.0,50,29.83,10.0,WNW,15.0,27.6,N/A,,Clear,300,2013-11-24 04:53:00